Weather History for KGGW - November, 2011

Change the Weather History Date:

Saturday, November 19, 2011

  Actual Average Record
Temperature  
Mean Temperature 2 °F 27 °F  
Max Temperature 6 °F 38 °F 74 °F (1936)
Min Temperature -2 °F 17 °F -24 °F (1900)
Degree Days  
Heating Degree Days 63 38  
Month to date heating degree days 696 621  
Since 1 July heating degree days 1328 1545  
Cooling Degree Days 0 0  
Month to date cooling degree days 0 0  
Year to date cooling degree days 558 533  
Moisture  
Dew Point -4 °F    
Average Humidity 82    
Maximum Humidity 91    
Minimum Humidity 72    
Precipitation  
Precipitation 0.16 in 0.01 in 0.29 in (1996)
Month to date precipitation 0.51 0.27  
Year to date precipitation 22.39 11.13  
Snow  
Snow 2.50 in 0.20 in 3.70 in (1996)
Month to date snowfall 7.0 2.9  
Since 1 July snowfall 7.0 4.4  
Since 1 September snowfall 7.0 4.4  
Snow Depth 0.00 in    
Sea Level Pressure  
Sea Level Pressure 30.12 in    
Wind  
Wind Speed 10 mph (ENE)    
Max Wind Speed 17 mph    
Max Gust Speed 20 mph    
Visibility 5 miles    
Events Snow    
T = Trace of Precipitation, MM = Missing Value Source: NWS Daily Summary

Daily Weather History Graph

Daily Weather History Graph

Search for Another Location

Airport or City:

Trip Planner

Search our weather history database for the weather conditions in past years. The results will help you decide how hot, cold, wet, or windy it might be!

Date:

Astronomy

Nov. 19, 2011 Rise Set
Actual Time 7:19 AM MST 4:23 PM MST
Civil Twilight 6:44 AM MST 4:58 PM MST
Nautical Twilight 6:06 AM MST 5:36 PM MST
Astronomical Twilight 5:29 AM MST 6:13 PM MST
Moon 12:14 AM MST (11/19) 1:08 PM MST (11/19)
Length of Visible Light 10h 13m
Length of Day
9h 04m
Last Quarter, 37% of the Moon is Illuminated
Nov 19
Last Quarter
Nov 24
New
Dec 2
First Quarter
Dec 10
Full
Dec 17
Last Quarter

Hourly Weather History & Observations

Time (MST) Temp. Windchill Dew Point Humidity Pressure Visibility Wind Dir Wind Speed Gust Speed Precip Events Conditions
12:53 AM -0.9 °F -18.3 °F -8.0 °F 72% 30.18 in 10.0 mi NNE 11.5 mph - N/A   Overcast
1:53 AM -0.9 °F -17.4 °F -8.0 °F 72% 30.19 in 3.0 mi NNE 10.4 mph - 0.00 in Snow Light Snow
2:12 AM -0.4 °F -17.6 °F -7.6 °F 72% 30.02 in 2.5 mi NNE 11.5 mph - 0.00 in Snow Light Snow
2:24 AM -2.2 °F -18.9 °F -7.6 °F 78% 30.02 in 1.5 mi NNE 10.4 mph - 0.00 in Snow Light Snow
2:51 AM -2.2 °F -18.9 °F -7.6 °F 78% 30.02 in 1.2 mi NE 10.4 mph - 0.01 in Snow Light Snow
2:53 AM -2.0 °F -18.7 °F -7.1 °F 79% 30.19 in 1.2 mi NE 10.4 mph - 0.01 in Snow Light Snow
3:16 AM -2.2 °F -18.0 °F -7.6 °F 78% 30.03 in 1.5 mi NE 9.2 mph - 0.01 in Snow Light Snow
3:53 AM -2.0 °F -17.7 °F -7.1 °F 79% 30.20 in 1.8 mi NE 9.2 mph - 0.01 in Snow Light Snow
4:13 AM -0.4 °F -15.7 °F -7.6 °F 72% 30.03 in 1.2 mi NNE 9.2 mph - 0.01 in Snow Light Snow
4:53 AM -0.9 °F -16.4 °F -7.1 °F 75% 30.20 in 1.2 mi NNE 9.2 mph - 0.03 in Snow Light Snow
5:15 AM -0.4 °F -15.7 °F -5.8 °F 78% 30.04 in 0.8 mi NE 9.2 mph - 0.01 in Snow Light Snow
5:31 AM -0.4 °F -13.4 °F -5.8 °F 78% 30.05 in 1.0 mi NE 6.9 mph - 0.02 in Snow Light Snow
5:38 AM -0.4 °F -13.4 °F -5.8 °F 78% 30.05 in 1.0 mi NE 6.9 mph - N/A Snow Light Snow
5:53 AM -0.9 °F -12.7 °F -6.0 °F 79% 30.23 in 0.8 mi ENE 5.8 mph - 0.03 in Snow Light Snow
6:22 AM -0.4 °F -10.4 °F -5.8 °F 78% 30.05 in 1.0 mi NE 4.6 mph - 0.02 in Snow Light Snow
6:29 AM -0.4 °F -12.0 °F -5.8 °F 78% 30.05 in 1.0 mi ENE 5.8 mph - 0.02 in Snow Light Snow
6:53 AM -0.0 °F -9.9 °F -5.1 °F 79% 30.24 in 1.0 mi ENE 4.6 mph - 0.03 in Snow Light Snow
7:53 AM -0.0 °F -7.9 °F -5.1 °F 79% 30.26 in 1.5 mi NNE 3.5 mph - 0.02 in Snow Light Snow
8:53 AM 1.0 °F -8.7 °F -4.0 °F 79% 30.27 in 2.0 mi NNE 4.6 mph - 0.02 in Snow Light Snow
9:25 AM 1.4 °F -11.3 °F -4.0 °F 78% 30.09 in 4.0 mi NE 6.9 mph - 0.00 in Snow Light Snow
9:33 AM 1.4 °F -9.9 °F -4.0 °F 78% 30.10 in 6.0 mi NE 5.8 mph - 0.00 in Snow Light Snow
9:53 AM 1.9 °F -5.6 °F -4.0 °F 76% 30.29 in 8.0 mi NE 3.5 mph - 0.00 in   Overcast
10:33 AM 3.2 °F -6.2 °F -4.0 °F 72% 30.10 in 2.5 mi ENE 4.6 mph - N/A Snow Light Snow
10:53 AM 3.0 °F -4.4 °F -4.0 °F 73% 30.28 in 2.5 mi East 3.5 mph - 0.00 in Snow Light Snow
11:53 AM 3.0 °F -11.5 °F -2.9 °F 76% 30.25 in 1.8 mi East 9.2 mph - 0.01 in Snow Light Snow
12:21 PM 3.2 °F -13.9 °F -2.2 °F 78% 30.07 in 2.0 mi ESE 12.7 mph - 0.00 in Snow Light Snow
12:53 PM 3.9 °F -12.2 °F -2.0 °F 76% 30.24 in 3.0 mi ESE 11.5 mph - 0.01 in Snow Light Snow
1:12 PM 3.2 °F -11.3 °F -2.2 °F 78% 30.06 in 2.0 mi ESE 9.2 mph - 0.00 in Snow Light Snow
1:35 PM 5.0 °F -10.0 °F -2.2 °F 72% 30.06 in 3.0 mi ESE 10.4 mph - 0.00 in Snow Light Snow
1:53 PM 5.0 °F -10.8 °F -2.2 °F 72% 30.06 in 5.0 mi ESE 11.5 mph - N/A   Haze
2:45 PM 3.2 °F -13.1 °F -2.2 °F 78% 30.06 in 7.0 mi ESE 11.5 mph - N/A   Overcast
2:53 PM 3.9 °F -12.2 °F -2.0 °F 76% 30.25 in 8.0 mi ESE 11.5 mph - N/A   Overcast
3:53 PM 5.0 °F -11.6 °F -0.9 °F 76% 30.25 in 10.0 mi ESE 12.7 mph - N/A   Overcast
4:53 PM 3.9 °F -13.7 °F -0.9 °F 80% 30.23 in 4.0 mi ESE 13.8 mph - 0.00 in Snow Light Snow
5:53 PM 5.0 °F -12.3 °F -0.4 °F 78% 30.06 in 7.0 mi ESE 13.8 mph - N/A   Overcast
6:53 PM 5.0 °F -12.3 °F -0.0 °F 80% 30.23 in 4.0 mi ESE 13.8 mph - 0.00 in Snow Light Snow
7:53 PM 3.9 °F -14.3 °F -0.0 °F 84% 30.22 in 10.0 mi ESE 15.0 mph - 0.00 in   Overcast
8:51 PM 1.4 °F -15.3 °F -2.2 °F 85% 30.04 in 9.0 mi ESE 11.5 mph - N/A   Scattered Clouds
8:53 PM 1.4 °F -15.3 °F -2.2 °F 85% 30.04 in 8.0 mi ESE 11.5 mph - N/A   Scattered Clouds
9:03 PM 1.4 °F -16.1 °F -2.2 °F 85% 30.03 in 9.0 mi ESE 12.7 mph - N/A   Mostly Cloudy
9:27 PM -0.4 °F -18.4 °F -2.2 °F 92% 30.03 in 10.0 mi ESE 12.7 mph - N/A   Overcast
9:50 PM -0.4 °F -19.2 °F -2.2 °F 92% 30.02 in 10.0 mi East 13.8 mph - N/A   Overcast
9:53 PM -0.4 °F -19.2 °F -2.2 °F 92% 30.02 in 10.0 mi ESE 13.8 mph - N/A   Overcast
10:41 PM -0.4 °F -17.6 °F -2.2 °F 92% 30.01 in 9.0 mi ESE 11.5 mph - N/A   Overcast
10:53 PM -0.9 °F -16.4 °F -4.0 °F 87% 30.19 in 10.0 mi East 9.2 mph - N/A   Mostly Cloudy
11:06 PM -2.2 °F -18.9 °F -5.8 °F 85% 30.00 in 10.0 mi East 10.4 mph - N/A   Partly Cloudy
11:53 PM -0.9 °F -18.3 °F -5.1 °F 83% 30.17 in 10.0 mi East 11.5 mph - N/A   Partly Cloudy